Wind_Speed
64 62 61 65 66 68 66 68 68 68 68 68 66 66 66 67 69 70 72 75 75 79 84 87 91 92 95 97 99 102 106 109 112 112 117 122 124 124 128 125 118 104 96
69 66 65 64 63 63 65 68 70 70 68 68 67 67 69 71 72 74 76 77 80 85 87 92 92 96 98 101 104 106 110 113 116 119 121 125 126 127 128 119 115 102 89
75 71 68 66 69 70 71 70 68 67 68 69 71 74 75 77 78 79 80 83 86 90 93 94 97 99 101 104 106 110 110 116 119 123 126 128 129 129 127 118 113 107 93
81 80 78 77 75 74 72 71 71 72 73 76 78 79 79 79 81 84 87 89 92 94 95 99 100 103 106 109 110 113 117 119 120 124 128 130 130 125 120 116 108 93 91
83 82 81 82 81 80 79 78 77 78 79 81 82 83 84 85 89 91 92 95 95 97 99 102 105 107 110 111 114 117 118 121 125 125 127 130 124 123 111 104 93 86 87
86 85 85 85 82 82 81 82 82 84 85 87 88 89 91 92 94 96 97 97 98 100 104 106 108 111 112 116 117 120 122 124 127 128 128 126 120 108 99 93 89 87 83
91 89 89 89 88 87 87 86 86 87 91 94 95 95 96 97 98 99 100 100 102 104 108 110 111 113 115 117 119 123 124 128 130 126 124 118 107 98 90 87 86 85 87
96 94 93 93 93 93 93 93 95 96 98 100 99 99 100 100 102 103 104 104 105 108 110 111 114 115 118 120 122 126 127 125 127 126 123 109 93 86 85 84 81 83 83
100 99 99 99 98 98 98 98 99 100 101 101 101 102 103 104 105 107 108 108 110 110 114 116 117 120 123 125 125 127 124 123 126 121 103 95 82 79 79 80 85 85 82
105 107 105 104 103 104 103 103 104 104 105 105 106 107 107 109 109 111 112 112 113 115 117 119 122 122 124 127 128 121 123 116 116 103 103 87 77 76 76 78 82 81 85
113 112 110 110 110 110 109 109 109 110 111 111 111 112 112 113 115 116 116 116 118 118 121 122 124 127 126 126 118 111 108 107 107 100 89 83 76 76 73 79 82 86 85
119 117 117 118 118 117 116 116 116 116 116 116 116 116 117 118 118 118 120 122 121 122 124 125 127 127 120 113 109 106 108 103 95 89 83 83 76 74 80 85 87 91 95
126 124 124 123 124 123 123 122 122 122 121 121 122 121 121 122 124 124 124 124 125 126 125 124 116 116 109 104 105 103 100 101 94 86 82 80 80 84 87 89 92 94 97
130 129 129 129 130 129 128 127 126 126 126 127 129 126 127 127 129 127 125 126 122 116 116 116 108 103 100 101 105 105 102 99 86 83 83 81 83 86 88 92 95 98 102
133 132 130 129 132 134 134 132 131 130 130 132 131 131 130 130 130 128 124 118 111 112 109 105 101 99 99 102 102 100 98 90 81 77 79 80 84 88 93 98 103 104 107
136 132 129 126 125 125 127 127 129 131 133 133 133 132 129 123 117 117 113 107 103 102 98 95 96 97 98 98 93 97 84 82 84 85 87 91 94 97 104 109 111 113 113
116 120 122 123 122 122 122 122 120 119 120 119 120 120 116 111 112 106 103 101 97 95 92 93 93 95 94 92 92 85 87 90 90 91 93 96 98 99 103 107 114 119 122
103 104 107 109 112 114 113 113 114 113 115 114 110 109 107 105 98 97 92 90 91 90 94 97 94 92 92 94 92 92 92 96 96 99 103 105 106 110 113 117 120 126 130
92 93 94 96 101 101 102 103 104 104 105 108 110 105 101 98 93 87 87 91 92 93 96 94 93 92 92 91 94 95 97 100 104 105 107 107 109 112 117 123 127 132 138
76 77 80 83 84 89 91 93 94 97 98 96 90 85 81 79 82 87 92 94 98 98 94 96 97 97 99 103 100 98 102 102 103 106 107 113 117 120 123 126 130 137 141
74 76 76 83 84 86 88 90 88 86 82 83 85 87 84 81 86 93 99 102 101 101 102 101 104 105 102 98 100 104 105 110 113 113 115 118 122 125 125 130 139 144 147
75 76 77 82 84 85 85 84 87 86 86 87 86 85 89 94 98 98 98 99 100 102 103 106 108 110 113 111 112 114 116 120 121 123 122 124 124 124 129 133 142 152 151
83 81 79 82 85 86 85 89 93 91 90 93 90 95 95 96 97 99 102 105 107 108 109 110 113 114 116 117 121 124 125 121 125 129 130 135 135 136 139 140 150 154 154
88 90 90 89 90 90 90 90 96 97 101 96 94 92 99 104 106 109 112 114 115 115 115 116 115 116 119 121 124 127 128 134 130 133 134 139 138 139 142 150 155 154 151
95 94 93 94 97 96 98 99 101 98 99 102 107 107 101 100 100 101 105 109 110 112 114 117 122 121 122 125 129 133 136 135 136 138 139 141 144 147 150 153 154 154 154
102 101 100 101 104 105 105 104 104 109 108 108 109 111 112 109 110 114 115 115 117 120 123 127 130 131 134 133 134 135 136 138 137 141 146 151 150 152 153 155 157 148 138
Wind_Direction
262 263 261 263 263 267 268 270 271 275 279 281 282 280 282 285 287 288 291 294 296 298 302 304 305 307 309 311 312 313 313 315 317 318 320 322 323 324 325 327 331 329 324
263 264 263 264 264 266 268 270 273 276 276 277 278 281 282 284 286 289 292 293 295 298 301 303 305 307 309 310 311 311 312 314 317 317 319 320 322 323 324 325 328 326 321
259 260 261 262 265 266 268 272 273 273 275 277 279 281 283 285 289 290 291 293 296 300 301 304 304 306 308 307 309 310 312 313 315 317 317 319 322 323 323 323 325 324 327
257 259 260 263 265 268 268 270 270 273 276 278 280 281 283 285 288 289 291 294 296 298 301 301 304 305 307 307 307 310 311 313 314 315 317 318 321 321 322 322 323 323 326
255 258 260 262 265 268 269 270 273 275 276 278 279 280 282 285 287 289 291 293 295 298 299 301 303 304 305 306 308 309 310 311 312 315 316 317 321 321 319 319 321 323 324
254 256 259 262 262 264 268 270 272 273 274 275 276 278 282 285 286 288 290 292 295 297 298 299 302 303 304 305 307 307 310 310 311 313 316 316 319 317 316 318 319 321 323
253 256 258 260 263 266 268 269 270 269 270 273 276 279 281 283 285 287 289 292 293 296 298 299 299 302 304 304 306 308 308 309 311 313 314 317 315 315 315 314 318 321 324
254 256 257 258 260 262 263 264 265 268 271 273 276 278 280 282 284 286 288 290 293 294 296 299 300 301 302 303 305 306 309 309 310 311 313 316 313 312 313 316 318 319 320
255 256 257 258 260 262 264 266 267 269 270 273 276 277 279 281 284 285 288 289 293 295 295 298 300 300 300 302 303 306 308 306 309 310 313 312 309 311 313 312 316 317 317
253 254 256 259 260 262 264 266 268 269 271 273 275 277 279 280 284 284 287 290 292 293 294 296 297 299 299 301 303 303 305 303 307 310 310 310 309 312 312 311 312 314 314
255 258 259 260 261 262 263 265 266 268 270 271 274 276 278 281 283 285 286 289 291 292 292 295 296 297 299 299 300 301 303 302 307 310 309 312 311 310 310 311 311 312 313
254 256 258 259 261 262 264 265 267 268 270 273 275 277 278 280 282 284 286 287 288 291 292 293 294 296 297 297 297 298 300 304 305 306 309 312 308 306 307 311 309 311 312
256 256 257 258 259 261 263 265 267 268 270 271 273 274 276 278 280 281 283 286 287 289 291 292 292 293 293 293 295 298 301 302 303 305 307 308 304 305 308 309 309 310 313
257 258 258 259 260 261 263 264 266 267 269 271 272 273 275 276 278 281 283 285 285 286 286 289 290 290 290 292 294 298 302 301 307 305 305 305 306 307 308 309 310 310 310
257 258 259 261 261 262 263 264 266 267 269 269 271 272 274 276 278 280 281 282 282 282 285 285 287 289 290 291 295 300 299 303 306 308 307 307 309 310 311 312 313 311 310
256 259 260 262 264 264 265 267 267 268 269 270 271 272 274 277 277 278 278 277 279 280 283 283 284 288 289 294 295 297 299 301 304 304 305 306 308 309 310 314 313 313 311
257 258 260 261 263 264 265 265 266 267 267 269 269 270 271 271 274 273 273 275 276 279 283 282 283 286 292 294 295 294 296 298 300 303 304 305 308 309 310 312 311 310 309
256 257 258 260 260 260 262 263 265 266 267 267 267 268 270 272 272 270 272 275 278 279 277 277 284 288 291 290 291 293 294 298 299 300 300 303 306 306 307 307 308 310 309
255 257 258 260 261 262 262 262 263 263 264 265 266 267 268 270 267 273 275 275 274 276 279 282 286 288 290 289 290 294 297 297 298 300 300 302 303 304 306 306 306 307 308
257 258 257 255 256 255 257 259 261 261 261 263 265 266 269 274 272 272 272 269 273 279 280 281 284 285 288 287 288 293 297 295 296 298 299 300 301 300 302 305 308 309 308
251 250 249 251 253 257 260 259 260 261 268 269 271 269 265 265 268 269 269 271 277 280 280 281 281 282 288 289 290 295 296 298 299 301 302 302 302 302 299 300 306 306 305
249 248 252 254 256 258 260 263 262 265 267 264 260 262 265 266 267 270 272 274 276 277 279 279 279 283 284 286 290 294 296 295 297 297 299 303 303 304 303 301 304 308 306
251 253 254 254 257 258 260 262 263 264 268 265 265 263 262 265 267 268 269 271 273 275 279 281 283 285 285 287 290 292 294 294 295 299 298 300 303 304 306 305 309 306 308
247 250 250 254 255 256 257 260 262 265 268 264 265 272 267 264 265 267 270 272 274 276 278 281 283 286 286 286 287 288 290 292 295 297 299 299 301 303 304 305 307 308 307
247 249 251 255 256 254 254 257 259 262 266 268 271 273 277 273 270 270 273 279 280 280 281 283 285 285 286 287 288 288 289 291 293 295 300 300 302 302 303 306 308 308 307
252 248 252 258 257 256 260 259 261 263 262 263 265 269 272 274 270 270 272 276 279 279 280 282 283 284 286 288 291 291 291 292 295 296 298 301 300 300 303 304 307 304 306
Height
10716 10720 10723 10724 10725 10725 10725 10722 10723 10726 10724 10723 10721 10718 10716 10713 10710 10706 10700 10695 10691 10684 10678 10672 10663 10655 10646 10635 10626 10616 10605 10595 10585 10575 10560 10548 10536 10523 10507 10494 10483 10471 10456
10700 10705 10706 10708 10708 10709 10707 10708 10710 10709 10709 10708 10706 10703 10700 10697 10694 10690 10685 10681 10676 10670 10662 10655 10648 10637 10628 10618 10608 10597 10587 10574 10564 10552 10541 10529 10514 10501 10488 10474 10464 10457 10446
10685 10688 10690 10691 10692 10692 10693 10692 10693 10693 10692 10691 10689 10686 10682 10679 10677 10672 10669 10664 10658 10653 10646 10638 10629 10621 10612 10601 10591 10579 10570 10557 10545 10531 10518 10507 10496 10482 10468 10454 10443 10430 10419
10668 10671 10673 10673 10674 10676 10677 10677 10676 10676 10676 10673 10671 10667 10664 10662 10659 10654 10651 10647 10642 10635 10628 10619 10611 10602 10593 10581 10572 10562 10551 10539 10527 10515 10497 10485 10475 10461 10447 10435 10420 10411 10398
10650 10655 10657 10657 10660 10661 10661 10661 10662 10661 10659 10655 10653 10651 10649 10646 10641 10636 10633 10628 10623 10618 10610 10600 10592 10583 10573 10564 10552 10541 10531 10520 10508 10497 10484 10468 10455 10441 10427 10416 10407 10396 10386
10633 10636 10639 10641 10643 10643 10644 10645 10644 10643 10640 10638 10636 10634 10632 10629 10624 10619 10614 10609 10604 10598 10589 10580 10573 10563 10553 10542 10533 10521 10509 10499 10488 10478 10465 10451 10437 10424 10412 10400 10391 10383 10373
10613 10617 10620 10622 10625 10625 10624 10624 10623 10623 10621 10619 10617 10616 10614 10611 10605 10600 10594 10591 10584 10577 10568 10560 10552 10543 10533 10521 10512 10501 10488 10478 10467 10456 10445 10432 10420 10410 10399 10388 10376 10367 10357
10594 10598 10601 10603 10604 10604 10605 10606 10605 10603 10602 10600 10599 10597 10594 10590 10584 10579 10575 10571 10566 10557 10548 10540 10530 10522 10512 10500 10491 10477 10467 10455 10448 10436 10426 10414 10404 10393 10380 10370 10362 10353 10343
10574 10575 10576 10578 10581 10583 10584 10585 10584 10582 10579 10579 10578 10575 10572 10568 10563 10558 10554 10551 10545 10537 10526 10518 10508 10501 10490 10480 10472 10459 10448 10436 10426 10418 10406 10395 10384 10375 10367 10357 10348 10339 10330
10553 10550 10555 10559 10560 10560 10561 10561 10560 10560 10557 10556 10555 10552 10550 10545 10541 10535 10532 10528 10523 10516 10507 10497 10487 10479 10466 10457 10449 10437 10427 10417 10408 10400 10392 10380 10369 10359 10350 10342 10333 10324 10315
10526 10530 10535 10536 10536 10536 10537 10537 10536 10535 10533 10532 10531 10528 10525 10521 10517 10512 10508 10505 10498 10492 10483 10476 10464 10454 10446 10435 10426 10417 10409 10399 10389 10379 10370 10360 10351 10342 10334 10326 10318 10309 10300
10498 10505 10507 10507 10509 10511 10511 10512 10511 10509 10509 10508 10506 10503 10500 10497 10493 10489 10485 10480 10475 10468 10460 10452 10441 10433 10424 10414 10405 10397 10389 10381 10371 10361 10352 10344 10335 10327 10320 10310 10300 10291 10282
10472 10480 10481 10482 10482 10484 10485 10485 10485 10485 10484 10482 10480 10479 10477 10473 10468 10464 10462 10456 10450 10443 10435 10427 10418 10410 10401 10393 10384 10378 10368 10361 10352 10343 10335 10326 10318 10309 10300 10291 10280 10271 10259
10443 10449 10452 10455 10454 10456 10457 10458 10460 10460 10459 10457 10453 10452 10449 10446 10442 10438 10437 10431 10423 10416 10408 10403 10395 10387 10380 10372 10363 10356 10350 10341 10332 10322 10315 10307 10299 10289 10280 10271 10261 10250 10240
10415 10417 10420 10422 10424 10425 10426 10426 10427 10429 10429 10426 10425 10422 10422 10419 10414 10413 10407 10402 10396 10389 10384 10376 10371 10364 10358 10350 10343 10337 10326 10319 10311 10303 10295 10287 10279 10270 10260 10251 10241 10229 10218
10385 10387 10390 10391 10393 10392 10392 10395 10397 10398 10398 10394 10394 10393 10391 10391 10386 10383 10379 10373 10368 10363 10359 10353 10347 10342 10334 10328 10320 10315 10306 10298 10291 10284 10277 10268 10259 10249 10239 10226 10215 10203 10192
10357 10359 10361 10363 10363 10365 10366 10367 10369 10367 10365 10366 10365 10363 10361 10361 10358 10354 10350 10347 10343 10340 10335 10329 10323 10317 10312 10305 10299 10293 10286 10278 10271 10263 10254 10246 10237 10226 10216 10203 10191 10179 10165
10330 10332 10334 10336 10336 10336 10339 10339 10339 10339 10337 10336 10335 10335 10333 10331 10330 10327 10324 10322 10318 10315 10310 10304 10299 10294 10289 10284 10277 10270 10262 10255 10247 10239 10231 10222 10212 10203 10192 10180 10167 10156 10143
10303 10305 10307 10307 10309 10310 10310 10310 10309 10308 10307 10306 10307 10307 10305 10304 10302 10302 10300 10298 10295 10290 10285 10280 10277 10272 10267 10259 10251 10245 10238 10231 10223 10214 10206 10197 10187 10177 10165 10154 10142 10128 10115
10279 10280 10281 10282 10282 10281 10282 10282 10282 10282 10281 10280 10280 10279 10279 10278 10279 10279 10276 10273 10269 10265 10259 10254 10252 10247 10241 10234 10228 10221 10214 10205 10197 10189 10180 10170 10161 10150 10139 10127 10114 10101 10085
10254 10256 10257 10259 10258 10259 10259 10259 10259 10258 10257 10257 10258 10257 10256 10255 10255 10252 10249 10246 10243 10238 10233 10229 10225 10221 10214 10208 10201 10194 10188 10180 10171 10162 10153 10143 10132 10122 10110 10098 10086 10070 10052
10230 10232 10234 10235 10234 10235 10236 10235 10235 10235 10234 10234 10232 10231 10230 10229 10226 10225 10223 10219 10214 10210 10206 10203 10197 10192 10187 10180 10173 10166 10158 10150 10142 10132 10122 10112 10102 10090 10078 10065 10051 10035 10019
10206 10208 10209 10211 10211 10211 10212 10211 10210 10209 10208 10206 10204 10203 10202 10201 10199 10195 10192 10188 10184 10182 10177 10173 10167 10162 10157 10150 10143 10136 10127 10119 10111 10101 10090 10080 10069 10058 10046 10031 10018 10000 9984
10177 10179 10181 10182 10183 10182 10182 10181 10181 10180 10178 10176 10176 10175 10174 10171 10168 10165 10162 10159 10156 10152 10147 10141 10137 10132 10125 10118 10110 10103 10095 10088 10078 10069 10058 10046 10034 10024 10011 9997 9980 9966 9948
10149 10151 10151 10152 10154 10154 10152 10152 10152 10150 10150 10148 10146 10144 10144 10142 10138 10136 10133 10129 10125 10120 10115 10110 10104 10098 10092 10085 10078 10069 10062 10054 10044 10034 10024 10014 10002 9989 9976 9962 9946 9931 9915
10121 10123 10122 10122 10123 10123 10122 10122 10120 10119 10117 10116 10114 10113 10112 10110 10107 10105 10101 10097 10093 10088 10082 10076 10069 10063 10057 10050 10044 10036 10028 10019 10009 10000 9990 9979 9966 9953 9942 9927 9914 9898 9885